This is the latest recevied weather packets stored in our database for station/object W4JCW. If no packets are shown the sender has not sent any weather packets the latest 10 day(s).
| Time | Temp. | Humidity | Pressure | Rain* | Wind** | Luminosity | Snow |
|---|---|---|---|---|---|---|---|
| 1777569087 | 20.56° C | 75% | 1008.6 hPa | 0 mm | - | 343 W/m² | - |
| 1777568784 | 20° C | 77% | 1008.9 hPa | 0 mm | - | 319 W/m² | - |
| 1777568481 | 20° C | 80% | 1008.8 hPa | 0 mm | - | 364 W/m² | - |
| 1777568177 | 20° C | 80% | 1008.8 hPa | 0 mm | - | 225 W/m² | - |
| 1777567875 | 19.44° C | 82% | 1008.7 hPa | 0 mm | - | 364 W/m² | - |
| 1777567571 | 19.44° C | 81% | 1009 hPa | 0 mm | - | 334 W/m² | - |
| 1777567268 | 19.44° C | 82% | 1008.9 hPa | 0 mm | - | 287 W/m² | - |
| 1777566967 | 19.44° C | 81% | 1009 hPa | 0 mm | - | 291 W/m² | - |
| 1777566664 | 19.44° C | 83% | 1009 hPa | 0 mm | - | 224 W/m² | - |
| 1777566361 | 19.44° C | 83% | 1009.1 hPa | 0 mm | - | 263 W/m² | - |
| 1777566058 | 19.44° C | 83% | 1009.1 hPa | 0 mm | - | 328 W/m² | - |
| 1777565754 | 18.89° C | 84% | 1009 hPa | 0 mm | - | 339 W/m² | - |
| 1777565450 | 18.89° C | 86% | 1009.2 hPa | 0 mm | - | 312 W/m² | - |
| 1777565146 | 18.89° C | 87% | 1008.9 hPa | 0 mm | - | 119 W/m² | - |
| 1777564843 | 18.89° C | 86% | 1009 hPa | 0 mm | - | 101 W/m² | - |
| 1777564538 | 18.89° C | 84% | 1008.7 hPa | 0 mm | - | 167 W/m² | - |
| 1777564233 | 19.44° C | 83% | 1008.7 hPa | 0 mm | - | 153 W/m² | - |
| 1777563930 | 18.89° C | 84% | 1009 hPa | 0 mm | - | 434 W/m² | - |
| 1777563626 | 18.89° C | 86% | 1009.1 hPa | 0 mm | - | 284 W/m² | - |
| 1777563326 | 18.33° C | 87% | 1009 hPa | 0 mm | - | 831 W/m² | - |
| 1777563023 | 17.78° C | 91% | 1008.9 hPa | 0 mm | - | 290 W/m² | - |
| 1777562718 | 17.78° C | 91% | 1008.5 hPa | 0 mm | - | 470 W/m² | - |
| 1777562417 | 17.22° C | 93% | 1008.3 hPa | 0 mm | - | 305 W/m² | - |
| 1777562114 | 16.67° C | 93% | 1008.2 hPa | 0 mm | - | 413 W/m² | - |
| 1777561812 | 16.67° C | 94% | 1008.3 hPa | 0 mm | - | 275 W/m² | - |
* Rain latest hour (hover to see other rain measurements)
** Current wind speed in m/s (hover to see current wind gust speed)